カタログに戻る

ATLAS 5 CENTAUR DEB

運用中HEO
NORAD 44666·DEBRIS·🇺🇸 United States

打ち上げ Oct 17, 2018 から Cape Canaveral Space Force Station

Loading…

次のパス (今後24時間)

TLE

最新Source: Space-Track

元期: Sep 9, 2026, 04:40 UTC

1 44666U 18079AC  26252.19497857 -.00000189  00000-0  00000-0 0  9997
2 44666  13.1624  22.6271 4455837 350.3014   3.2211  1.90649430 50625

AllMySatでATLAS 5 CENTAUR DEBをリアルタイム追跡

Download on the App Store